Location: Newark
(47.5833°N, 8.1500°E)
Time: 11:45:48
(UTC+00:00)

Transit 2A - Pass Details

Date: 30 October 2020
Orbit: 595 x 964 km, 66.7° (Epoch: 27 November)

Event Time Altitude Azimuth Distance (km) Brightness Sun altitude
Rises 02:10:31 0° 258° (WSW) 3,646 - -39.9°
Reaches altitude 10° 02:13:35 10° 271° (W) 2,697 - -39.4°
Maximum altitude 02:18:45 25° 325° (NW) 1,797 - -38.6°
Exits shadow 02:21:52 17° 6° (N) 2,142 8.5 -38.2°
Drops below altitude 10° 02:23:44 10° 20° (NNE) 2,604 9.1 -37.9°
Sets 02:26:40 0° 34° (NNE) 3,495 10.1 -37.4°
